This demonstration page uses our WeatherBlox Daily Observations layout. Learn more.

Left ArrowRight Arrow

39.01783, -85.05884

Hourly Observations for April 3, 2020

Temp ( °F °C ) Dew Point ( °F °C ) Humidity (%) Winds ( mph kmh ) Pressure ( in mb ) Visibility ( mi km ) Precip ( " mm )
12:52 am 00:52 Partly Cloudy 50 10 34 1.1 54 54 NE 5 7 30.09 1019 10 16 N/A
1:52 am 01:52 Partly Cloudy 48 8.9 34 1.1 58 58 NNE 3 6 30.09 1019 10 16 N/A
2:52 am 02:52 Clear 43 6.1 34 1.1 71 71 N N/A 30.09 1019 10 16 N/A
3:52 am 03:52 Mostly Clear 44 6.7 34 1.1 68 68 N N/A 30.07 1018 10 16 N/A
4:52 am 04:52 Mostly Cloudy 45 7.2 35 1.7 68 68 E 5 7 30.06 1018 10 16 N/A
5:52 am 05:52 Mostly Cloudy 46 7.8 36 2.2 68 68 E 6 9 30.05 1018 10 16 N/A
6:52 am 06:52 Mostly Cloudy 43 6.1 37 2.8 80 80 W 9 15 30.09 1019 10 16 N/A
7:52 am 07:52 Mostly Sunny 41 5 36 2.2 82 82 W 6 9 30.12 1020 10 16 N/A
8:52 am 08:52 Partly Cloudy 50 10 39 3.9 66 66 N N/A 30.12 1020 10 16 N/A
9:52 am 09:52 Mostly Sunny 55 12.8 39 3.9 55 55 N N/A 30.11 1020 10 16 N/A
10:52 am 10:52 Partly Cloudy 58 14.4 35 1.7 42 42 N N/A 30.11 1020 10 16 N/A
11:52 am 11:52 Mostly Sunny 60 15.6 36 2.2 41 41 NE 3 6 30.11 1020 10 16 N/A
12:52 pm 12:52 Mostly Cloudy 62 16.7 34 1.1 35 35 N N/A 30.09 1019 10 16 N/A
1:52 pm 13:52 Mostly Cloudy 64 17.8 36 2.2 35 35 NE 6 9 30.06 1018 10 16 N/A
2:52 pm 14:52 Mostly Cloudy 64 17.8 36 2.2 35 35 SSE 5 7 30.05 1018 10 16 N/A
3:52 pm 15:52 Mostly Cloudy 66 18.9 36 2.2 33 33 VRB 5 7 30.02 1017 10 16 N/A
4:52 pm 16:52 Mostly Cloudy 68 20 34 1.1 28 28 N 3 6 30.01 1016 10 16 N/A
5:52 pm 17:52 Partly Cloudy 67 19.4 35 1.7 31 31 ENE 6 9 30.00 1016 10 16 N/A
6:52 pm 18:52 Mostly Sunny 67 19.4 37 2.8 33 33 NNW 6 9 30.01 1016 10 16 N/A
7:52 pm 19:52 Mostly Sunny 63 17.2 36 2.2 37 37 N 3 6 30.01 1016 10 16 N/A
8:52 pm 20:52 Mostly Clear 62 16.7 36 2.2 38 38 NNE 3 6 30.00 1016 10 16 N/A
9:52 pm 21:52 Mostly Clear 59 15 37 2.8 44 44 N 3 6 30.01 1016 10 16 N/A
10:52 pm 22:52 Mostly Clear 56 13.3 38 3.3 51 51 N 3 6 30.01 1016 10 16 N/A
11:52 pm 23:52 Clear 55 12.8 36 2.2 49 49 N N/A 30.01 1016 10 16 N/A

Powered by AerisWeather